{"data":{"norad_id":60030,"intl_designator":"2024-111Q","name":"STARLINK-32011","alt_names":[],"object_type":"PAYLOAD","status":"ACTIVE","operator":null,"country":"US","launch_date":"2024-06-08","launch_site_code":"AFETR","launch_vehicle":null,"mission":null,"orbit_class":"UNKNOWN","rcs_meters":null,"size_class":null,"mass_kg":null,"dimensions":null,"purposes":["comms"],"wikipedia_slug":null,"has_3d_model":false,"image_url":null,"decayed_at":null,"tle_current":{"epoch":"2026-05-25T04:41:53.410848Z","epoch_age_seconds":61365,"freshness":"FRESH","line1":"1 60030U 24111Q   26145.19575707  .00000713  00000+0  32257-4 0  9990","line2":"2 60030  53.1607  79.0817 0001233  92.7760 267.3383 15.34392108110768","mean_motion":15.34392108,"eccentricity":0.0001233,"inclination_deg":53.1607,"raan_deg":79.0817,"arg_perigee_deg":92.776,"mean_anomaly_deg":267.3383,"bstar":3.2257e-5,"rev_number":11076,"period_min":93.84824077836,"perigee_km":461.88321850097,"apogee_km":463.57017548865,"semimajor_km":6840.8636969948,"source":"CELESTRAK","updated_at":"2026-05-25T13:38:19.133588Z"}}}